Tracking 23586 objects as of 6-Aug-2021
HD Live streaming from Space Station
objects crossing your sky now

EAGLESAT-1

Track EAGLESAT-1 now!
10-day predictions
EAGLESAT-1 is classified as:


NORAD ID: 43018
Int'l Code: 2017-073F
Perigee: 457.6 km
Apogee: 810.7 km
Inclination: 97.7 °
Period: 97.2 minutes
Semi major axis: 7005 km
RCS: Unknown
Launch date: November 18, 2017
Source: United States (US)
Launch site: AIR FORCE WESTERN TEST RANGE (AFWTR)

Uplink (MHz):
Downlink (MHz): 437.645
Beacon (MHz):
Mode: 1200bps AFSK
Call sign:
Status: Inactive

aabbcc
Your satellite tracking list
Your tracking list is empty




NASA's NSSDC Master Catalog

Two Line Element Set (TLE):
1 43018U 17073F   21217.29502222  .00001028  00000-0  82191-4 0  9997
2 43018  97.7031 120.3126 0252023 137.1435 224.9728 14.80727203200277
Source of the keplerian elements: AFSPC